{"data":{"norad_id":66674,"epoch":"2026-09-20T10:52:14.586240Z","epoch_age_seconds":125022,"freshness":"FRESH","line1":"1 66674U 25276J   26263.45294660  .00001662  00000+0  83463-4 0  9998","line2":"2 66674  97.4089 334.6818 0007224  43.7726 316.4080 15.18649369 44850","mean_motion":15.18649369,"eccentricity":0.0007224,"inclination_deg":97.4089,"raan_deg":334.6818,"arg_perigee_deg":43.7726,"mean_anomaly_deg":316.408,"bstar":8.3463e-5,"rev_number":4485,"period_min":94.821097574894,"perigee_km":504.9456467844,"apogee_km":514.89751382122,"semimajor_km":6888.0585803028,"source":"CELESTRAK","updated_at":"2026-09-21T09:00:16.121232Z"}}